Whiteman AFB, MO

9:59 PM CST on February 17, 2018 (GMT -0600)
Whiteman Air Force Base

Weather History for KSZL - October, 2011

Change the Weather History Date:

Sunday, October 30, 2011

  Actual Average Record
Temperature  
Mean Temperature 50 °F -  
Max Temperature 64 °F 59 °F 134 °F (2006)
Min Temperature 38 °F 42 °F 31 °F (2012)
Degree Days  
Heating Degree Days 14    
Moisture  
Dew Point 31 °F    
Average Humidity 45    
Maximum Humidity 63    
Minimum Humidity 30    
Precipitation  
Precipitation 0.00 in - - ()
Sea Level Pressure  
Sea Level Pressure 30.03 in    
Wind  
Wind Speed 14 mph (WSW)    
Max Wind Speed 20 mph    
Max Gust Speed 28 mph    
Visibility 10 miles    
Events      
Averages and records for this station are not official NWS values.
T = Trace of Precipitation, MM = Missing Value Source: NWS Daily Summary

Daily Weather History Graph

Daily Weather History Graph

Search for Another Location

Airport or City:

Trip Planner

Search our weather history database for the weather conditions in past years. The results will help you decide how hot, cold, wet, or windy it might be!

Date:

Astronomy

Oct. 30, 2011 Rise Set
Actual Time 7:38 AM CDT 6:16 PM CDT
Civil Twilight 7:11 AM CDT 6:43 PM CDT
Nautical Twilight 6:39 AM CDT 7:15 PM CDT
Astronomical Twilight 6:08 AM CDT 7:46 PM CDT
Moon 11:56 AM CDT (10/30) 9:47 PM CDT (10/30)
Length of Visible Light 11h 32m
Length of Day
10h 37m
Waxing Crescent, 20% of the Moon is Illuminated
Oct 30
Waxing Crescent
Nov 2
First Quarter
Nov 10
Full
Nov 18
Last Quarter
Nov 25
New

Hourly Weather History & Observations

Time (CDT) Temp. Windchill Dew Point Humidity Pressure Visibility Wind Dir Wind Speed Gust Speed Precip Events Conditions
12:55 AM 52.2 °F - 32.2 °F 47% 30.00 in 10.0 mi SSW 13.8 mph - N/A   Overcast
1:55 AM 52.2 °F - 33.1 °F 48% 30.00 in 10.0 mi SSW 13.8 mph - N/A   Overcast
2:55 AM 50.7 °F - 33.4 °F 52% 29.99 in 10.0 mi SSW 13.8 mph - N/A   Clear
3:55 AM 50.4 °F - 33.4 °F 52% 29.98 in 10.0 mi SSW 15.0 mph - N/A   Partly Cloudy
4:55 AM 51.6 °F - 34.0 °F 51% 29.99 in 10.0 mi SSW 16.1 mph - N/A   Scattered Clouds
5:55 AM 51.1 °F - 33.3 °F 51% 29.99 in 10.0 mi SSW 16.1 mph - N/A   Mostly Cloudy
6:55 AM 48.4 °F - 32.9 °F 55% 30.00 in 10.0 mi SSW 15.0 mph 20.7 mph N/A   Clear
7:55 AM 50.5 °F - 32.7 °F 51% 30.01 in 10.0 mi SSW 15.0 mph - N/A   Mostly Cloudy
8:55 AM 51.8 °F - 33.3 °F 49% 30.03 in 10.0 mi SW 15.0 mph 24.2 mph N/A   Clear
9:55 AM 53.6 °F - 33.3 °F 46% 30.03 in 10.0 mi SW 19.6 mph 26.5 mph N/A   Partly Cloudy
10:55 AM 57.0 °F - 34.2 °F 42% 30.02 in 10.0 mi WSW 18.4 mph 27.6 mph N/A   Clear
11:55 AM 59.7 °F - 34.7 °F 39% 30.02 in 10.0 mi West 19.6 mph 24.2 mph N/A   Clear
12:55 PM 61.2 °F - 34.7 °F 37% 30.01 in 10.0 mi West 12.7 mph 20.7 mph N/A   Clear
1:55 PM 63.0 °F - 35.1 °F 35% 29.99 in 10.0 mi West 12.7 mph 19.6 mph N/A   Clear
2:55 PM 63.7 °F - 34.0 °F 33% 29.99 in 10.0 mi WNW 18.4 mph 24.2 mph N/A   Partly Cloudy
3:55 PM 63.0 °F - 31.3 °F 30% 30.01 in 10.0 mi NW 13.8 mph 21.9 mph N/A   Partly Cloudy
4:55 PM 60.1 °F - 28.4 °F 30% 30.02 in 10.0 mi NW 15.0 mph 20.7 mph N/A   Clear
5:55 PM 58.5 °F - 27.0 °F 30% 30.04 in 10.0 mi WNW 10.4 mph - N/A   Clear
6:55 PM 54.0 °F - 26.4 °F 35% 30.07 in 10.0 mi NW 6.9 mph - N/A   Clear
7:55 PM 50.4 °F - 26.1 °F 39% 30.10 in 10.0 mi WNW 6.9 mph - N/A   Clear
8:55 PM 48.0 °F - 26.4 °F 43% 30.09 in 10.0 mi WSW 3.5 mph - N/A   Clear
9:55 PM 38.7 °F 34.3 °F 27.1 °F 63% 30.10 in 10.0 mi SW 5.8 mph - N/A   Clear
10:55 PM 38.5 °F 35.0 °F 26.4 °F 62% 30.09 in 10.0 mi SW 4.6 mph - N/A   Clear
11:55 PM 41.7 °F 36.1 °F 25.9 °F 53% 30.08 in 10.0 mi SW 9.2 mph - N/A   Clear